Liberia, Costa Rica

7:43 AM CST on July 23, 2017 (GMT -0600)
Daniel Oduber Quiros International

Weather History for MRLB - September, 2013

Change the Weather History Date:

Wednesday, September 18, 2013

  Actual Average Record
Temperature  
Mean Temperature 81 °F -  
Max Temperature 90 °F 84 °F 94 °F (2016)
Min Temperature 72 °F 73 °F 70 °F (2012)
Cooling Degree Days 16    
Growing Degree Days 31 (Base 50)    
Moisture  
Dew Point 75 °F    
Average Humidity 78    
Maximum Humidity 94    
Minimum Humidity 53    
Precipitation  
Precipitation 0.00 in - - ()
Sea Level Pressure  
Sea Level Pressure 29.82 in    
Wind  
Wind Speed 3 mph ()    
Max Wind Speed 12 mph    
Max Gust Speed -    
Visibility 7.3 miles    
Events Rain    
Averages and records for this station are not official NWS values.
T = Trace of Precipitation, MM = Missing Value Source: Averaged Metar Reports

Daily Weather History Graph

Daily Weather History Graph

Search for Another Location

Airport or City:

Trip Planner

Search our weather history database for the weather conditions in past years. The results will help you decide how hot, cold, wet, or windy it might be!

Date:

Astronomy

Sep. 18, 2013 Rise Set
Actual Time 5:31 AM CST 5:40 PM CST
Civil Twilight 5:10 AM CST 6:01 PM CST
Nautical Twilight 4:46 AM CST 6:26 PM CST
Astronomical Twilight 4:21 AM CST 6:50 PM CST
Moon 5:06 PM CST (9/18) 4:36 AM CST (9/18)
Length of Visible Light 12h 51m
Length of Day
12h 09m
Waxing Gibbous, 99% of the Moon is Illuminated
Sep 18
Waxing Gibbous
Sep 19
Full
Sep 26
Last Quarter
Oct 4
New
Oct 11
First Quarter

Hourly Weather History & Observations

Time (CST) Temp. Heat Index Dew Point Humidity Pressure Visibility Wind Dir Wind Speed Gust Speed Precip Events Conditions
6:00 AM 74 °F - 72 °F 91% 29.83 in 12 mi Calm Calm - -   Overcast
6:00 AM 73.4 °F - 71.6 °F 94% 29.82 in 6.2 mi Calm Calm - N/A   Overcast
7:00 AM 77.0 °F - 73.4 °F 89% 29.83 in 6.2 mi Calm Calm - N/A   Overcast
8:00 AM 78.8 °F - 75.2 °F 89% 29.85 in 6.2 mi SSW 3.5 mph - N/A   Overcast
9:00 AM 82 °F - 76 °F 79% 29.87 in 12 mi Calm Calm - -   Overcast
9:00 AM 82.4 °F 90.9 °F 77.0 °F 84% 29.86 in 6.2 mi Calm Calm - N/A   Overcast
10:00 AM 82.4 °F 87.2 °F 71.6 °F 70% 29.84 in 6.2 mi NNE 2.3 mph - N/A   Mostly Cloudy
11:00 AM 84.2 °F 90.9 °F 73.4 °F 70% 29.84 in 6.2 mi NNE 2.3 mph - N/A   Mostly Cloudy
12:00 PM 90 °F - 75 °F 53% 29.84 in 12 mi SW 4.6 mph - -   Overcast
12:00 PM 89.6 °F 99.8 °F 75.2 °F 62% 29.82 in 6.2 mi SW 4.6 mph - N/A   Scattered Clouds
1:00 PM 87.8 °F 97.6 °F 75.2 °F 66% 29.79 in 6.2 mi West 10.4 mph - N/A   Mostly Cloudy
2:00 PM 87.8 °F 97.6 °F 75.2 °F 66% 29.77 in 6.2 mi West 11.5 mph - N/A   Mostly Cloudy
3:00 PM 87 °F - 76 °F 61% 29.78 in 12 mi West 10.4 mph - -   Overcast
3:00 PM 86.0 °F 95.1 °F 75.2 °F 70% 29.76 in 6.2 mi West 10.4 mph - N/A   Mostly Cloudy
4:00 PM 82.4 °F 90.9 °F 77.0 °F 84% 29.78 in 6.2 mi NW 4.6 mph - N/A   Mostly Cloudy
5:00 PM 80.6 °F 86.2 °F 75.2 °F 84% 29.78 in 6.2 mi NNW 3.5 mph - N/A   Mostly Cloudy
6:00 PM 78.8 °F - 75.2 °F 89% 29.81 in 5.6 mi ENE 6.9 mph - N/A Rain Rain
7:00 PM 77.0 °F - 75.2 °F 94% 29.84 in 5.0 mi SE 4.6 mph - N/A Rain Rain
8:00 PM 75.2 °F - 73.4 °F 94% 29.88 in 5.6 mi ESE 5.8 mph - N/A Rain Rain